Location: Newark
(49.8969°N, 3.3422°E)
Time: 11:29:14
(UTC+00:00)

Vanguard 1 Rocket - Pass Details

Date: 25 January 2020
Orbit: 650 x 4226 km, 34.3° (Epoch: 19 February)

Event Time Altitude Azimuth Distance (km) Brightness Sun altitude
Rises 17:06:32 0° 271° (W) 6,898 13.3 -6.4°
Reaches altitude 10° 17:14:20 10° 251° (WSW) 6,546 13.5 -7.5°
Maximum altitude 17:23:56 15° 225° (SW) 6,698 12.9 -9.0°
Drops below altitude 10° 17:34:46 10° 199° (SSW) 7,408 12.5 -10.6°
Sets 17:45:23 0° 180° (S) 8,370 12.5 -12.3°
